Temperature
11 11 11 10 10 10 10 10 10 10 10 10 10 10 10 10 10 10 10 11 11 11 11 11 11 11 11 11 10 10 10 10 10 10 10 10 10 10 10 10 10 10 10
11 11 10 10 10 10 10 10 10 9 9 9 10 10 10 10 10 10 10 10 10 10 10 10 10 10 10 10 10 10 10 10 10 9 9 9 9 9 9 9 9 9 9
11 10 10 10 10 9 9 9 9 9 9 9 9 9 9 9 9 9 9 10 10 10 10 10 10 10 10 10 10 10 10 9 9 9 9 9 8 8 9 9 9 9 9
11 10 10 9 9 9 9 9 9 9 9 9 9 9 9 9 9 9 9 9 9 10 10 10 9 9 9 9 9 9 9 9 9 9 9 9 9 8 8 8 8 8 8
11 10 10 9 9 9 9 9 9 8 8 8 8 9 9 9 9 9 9 9 9 9 9 9 9 9 9 9 9 9 9 9 9 8 8 8 8 8 8 7 8 8 8
11 10 10 9 9 9 9 9 8 8 8 8 8 8 8 8 8 8 8 8 8 9 8 9 9 9 9 9 8 8 8 8 8 8 8 8 8 8 8 8 7 7 7
11 10 10 9 9 9 8 8 8 8 8 7 7 8 8 8 8 8 8 8 8 8 8 8 8 8 8 8 8 8 8 8 8 8 8 8 8 8 8 7 7 7 7
10 10 10 9 9 9 8 8 8 8 8 7 7 7 7 7 8 8 8 8 8 8 8 8 8 8 8 8 8 8 8 8 8 8 7 7 7 7 7 7 7 6 6
10 10 9 9 9 8 8 8 8 8 7 7 7 7 7 7 7 7 7 7 7 7 7 7 7 7 7 7 7 7 7 7 7 7 7 7 7 7 7 7 6 6 5
10 9 9 9 8 8 8 8 8 8 7 7 7 7 7 7 7 7 7 7 7 7 7 7 7 7 7 7 7 7 7 7 7 7 6 6 6 6 6 6 6 6 6
9 9 9 8 8 8 8 7 7 7 7 7 7 7 7 7 7 7 6 6 7 7 7 7 6 6 6 6 6 6 6 6 6 6 6 6 6 6 6 6 6 5 5
9 8 8 8 7 7 7 7 7 7 6 6 6 6 6 6 6 6 6 6 6 6 6 6 6 6 6 6 6 6 6 6 6 6 6 6 6 5 5 5 5 5 5
8 8 8 7 7 7 6 6 6 6 6 6 6 6 6 6 6 6 6 6 6 6 6 6 6 5 5 5 5 5 5 5 5 5 5 5 5 5 5 5 5 5 4
8 7 7 7 7 6 6 6 6 6 6 6 6 6 6 6 5 5 5 5 5 5 5 5 5 5 5 5 5 5 5 5 5 5 5 5 5 5 4 4 4 4 4
7 7 7 7 6 6 6 6 6 5 5 5 5 5 5 5 5 5 5 5 5 5 5 5 4 4 4 5 4 5 5 4 5 4 4 4 4 4 4 4 4 4 3
6 6 6 6 6 6 6 5 5 5 5 5 5 5 5 5 5 4 4 4 4 4 4 4 4 4 4 4 4 4 4 4 4 4 4 4 4 4 3 3 3 3 3
6 6 6 6 5 5 5 5 5 5 5 5 5 5 4 4 4 4 4 4 4 4 4 4 4 4 4 4 4 4 4 4 4 3 3 3 3 3 3 3 3 3 2
6 5 5 5 5 5 5 5 5 5 4 4 4 4 4 4 4 4 4 4 4 4 3 3 3 3 3 3 3 3 3 3 3 3 3 3 3 3 2 2 2 2 2
5 5 5 5 5 4 4 4 4 4 4 4 4 4 4 4 4 4 4 3 3 3 3 3 3 3 3 3 3 3 3 3 3 2 2 2 2 2 2 2 2 2 2
5 5 5 4 4 4 4 4 4 4 4 4 4 4 4 4 3 3 3 3 3 3 2 2 2 2 3 2 2 2 2 2 2 2 2 2 2 2 1 1 1 1 1
4 4 4 4 4 3 3 3 3 3 3 3 3 3 3 3 3 3 3 3 2 2 2 2 2 2 2 2 2 2 2 2 2 2 2 2 1 1 1 1 1 1 1
3 3 3 3 3 3 3 3 3 3 3 3 3 3 3 3 2 2 2 2 2 2 2 2 2 2 2 2 2 2 2 1 1 1 1 1 1 0 0 0 0 -0 -0
2 2 2 2 2 2 2 2 2 2 2 2 2 2 2 2 2 2 2 1 1 1 1 1 1 1 1 1 1 1 1 1 1 1 0 0 0 -0 -0 -0 -0 -1 -1
1 1 1 1 1 1 1 1 2 2 2 2 2 2 2 2 1 1 1 1 1 1 1 1 1 1 1 1 1 1 1 0 0 0 -0 -0 -0 -0 -1 -1 -1 -1 -1
0 0 0 0 0 0 0 1 1 1 1 1 1 1 1 1 1 1 1 0 0 0 0 1 1 1 1 1 0 0 0 0 -0 -0 -1 -1 -1 -1 -1 -1 -1 -2 -2
-0 -0 -1 -0 -0 -0 -0 0 0 0 1 0 0 0 0 0 0 0 0 0 0 0 0 0 0 0 0 0 0 -0 -0 -1 -1 -1 -1 -1 -1 -1 -2 -2 -2 -2 -2
Wind_Speed
5 5 5 5 5 5 5 5 6 5 4 3 3 3 3 2 3 3 5 6 5 5 4 3 2 2 2 2 2 2 2 2 2 2 1 1 1 2 2 2 2 3 3
6 6 6 5 5 5 6 5 5 5 5 3 3 3 3 2 2 3 4 5 5 5 4 3 3 2 2 2 2 2 2 1 2 2 2 0 1 1 1 1 2 2 2
7 7 7 6 5 6 6 6 5 5 5 4 3 3 3 2 2 2 3 3 4 4 4 4 3 2 2 3 2 2 2 2 1 1 2 2 2 1 1 2 2 2 1
7 7 7 6 6 6 6 6 6 6 5 5 4 6 4 4 3 3 3 2 3 4 4 3 3 2 2 3 2 2 2 3 2 1 0 1 2 2 1 1 2 2 2
7 7 7 7 6 6 7 6 6 6 6 5 5 5 4 3 3 3 4 3 2 3 4 4 3 2 2 2 2 2 2 1 2 2 1 1 0 1 2 2 2 2 2
6 7 7 6 6 6 6 6 7 6 6 6 5 5 6 5 5 4 4 3 2 2 3 3 3 2 2 2 2 2 2 2 2 1 2 2 1 2 2 2 2 2 2
6 7 7 7 7 7 7 7 7 7 6 6 6 6 6 6 7 6 5 5 3 2 3 2 3 2 2 2 2 2 2 2 2 2 2 1 1 1 1 1 1 1 1
6 6 7 7 7 8 8 8 8 7 7 7 5 5 5 5 5 6 5 5 4 4 4 3 2 2 2 2 2 2 2 1 1 2 2 1 1 1 1 2 2 1 2
5 6 6 6 7 7 8 8 8 7 8 8 6 6 6 5 5 6 5 5 4 4 5 4 3 3 3 2 2 2 2 2 2 2 2 1 1 1 1 1 2 3 3
3 4 5 5 6 6 6 7 7 7 7 7 6 5 6 6 6 6 5 5 5 5 6 5 4 4 3 3 3 2 2 2 2 2 2 2 1 1 2 2 2 2 3
1 2 4 5 5 5 6 6 6 6 6 6 6 6 6 6 5 5 6 5 5 5 6 6 5 5 4 4 4 3 3 3 3 2 3 3 2 2 2 2 2 3 3
1 2 3 4 5 5 5 5 5 6 6 6 6 6 5 5 5 5 5 5 5 5 5 5 5 5 5 4 4 4 4 4 4 4 3 3 2 3 3 3 3 3 3
2 1 2 4 4 5 5 5 5 5 5 5 5 6 6 6 6 5 5 6 6 5 5 5 5 5 5 4 4 4 4 4 4 4 4 4 3 4 3 3 4 3 4
1 1 2 3 3 4 4 5 5 5 5 5 6 6 6 6 6 5 5 5 5 5 5 5 5 5 5 4 4 4 4 4 4 4 4 5 5 5 4 4 4 3 3
1 1 2 2 3 4 4 4 5 5 5 5 5 6 5 5 5 5 5 5 5 5 4 4 4 4 4 4 4 4 4 4 4 4 4 5 6 6 5 4 4 4 4
2 2 2 2 3 4 4 4 4 5 5 5 5 5 5 5 5 5 5 5 5 4 4 4 4 4 3 4 5 3 3 4 4 4 4 4 5 6 7 8 8 7 6
2 2 2 2 2 3 4 5 4 4 4 4 5 5 5 5 5 5 5 5 5 4 4 4 4 4 4 5 5 4 3 3 4 4 4 4 4 4 4 5 6 7 9
3 2 2 1 1 2 3 4 4 4 4 4 5 5 5 5 5 5 5 5 4 4 4 4 4 4 4 6 6 5 3 4 4 5 5 4 4 4 4 4 4 5 6
3 2 1 1 1 2 3 3 3 4 4 5 5 5 5 5 5 5 5 4 4 4 4 4 4 4 4 6 6 4 3 4 4 4 4 4 4 6 5 4 4 5 6
4 3 2 2 1 1 2 2 3 3 4 4 5 5 5 5 5 5 4 3 3 3 3 3 3 4 4 5 6 5 3 3 3 3 3 5 5 5 5 4 4 6 6
4 3 3 2 1 1 2 2 1 2 2 3 4 4 4 4 4 3 3 3 3 3 3 2 2 3 4 5 6 5 3 3 3 3 2 3 5 5 5 5 4 6 5
5 4 4 3 3 2 2 2 1 0 1 2 3 3 4 4 3 4 3 3 3 3 3 2 2 2 3 4 5 5 5 3 3 3 3 3 4 5 5 4 5 6 4
5 4 4 3 3 3 2 2 1 1 1 2 2 2 3 3 4 4 4 3 3 3 3 3 3 2 2 3 4 5 5 5 3 3 4 4 5 5 4 5 6 4 2
4 4 4 4 4 3 3 1 1 1 2 2 1 2 2 2 3 3 3 4 4 4 3 3 3 2 2 2 2 2 2 3 2 2 3 5 5 4 4 4 3 3 3
3 3 3 3 3 4 3 2 1 2 2 2 1 1 2 2 2 2 2 3 3 5 5 4 4 4 4 5 5 3 3 2 3 2 1 1 2 2 2 3 3 2 2
3 3 3 3 3 3 3 3 2 1 2 1 1 1 1 1 1 1 0 2 4 4 5 5 5 5 6 6 6 6 5 4 4 2 2 3 3 4 4 3 3 3 3
Wind_Direction
203 195 186 182 177 169 166 165 160 161 151 153 161 160 158 148 148 144 141 139 138 138 132 128 119 113 128 135 120 108 117 117 115 99 61 7 107 125 135 117 112 111 121
196 191 184 174 171 170 167 165 161 166 165 167 170 165 153 141 146 148 145 143 141 139 140 134 140 132 133 121 110 106 118 149 144 141 130 125 328 298 187 156 157 157 127
192 188 183 176 170 171 167 171 165 163 165 160 151 138 117 112 139 152 150 142 136 130 125 130 133 149 150 151 142 135 127 156 206 166 145 155 201 224 247 213 182 178 182
190 183 181 181 175 170 163 166 160 159 166 168 165 157 160 158 172 167 155 152 141 136 133 129 128 138 140 146 156 139 148 156 186 237 225 198 158 157 206 262 225 204 210
182 179 181 179 169 159 158 164 160 163 169 176 178 171 165 155 145 144 148 153 151 141 141 136 130 139 145 151 155 152 164 177 188 190 206 250 271 188 175 223 239 255 246
181 177 171 163 163 158 160 165 164 168 173 178 185 182 169 156 150 155 162 158 158 153 147 140 139 143 150 162 171 178 184 200 204 209 202 191 198 210 189 208 221 238 247
185 176 167 165 164 164 168 169 168 170 174 178 187 189 176 167 167 168 171 165 169 174 177 163 159 160 167 167 164 170 190 193 191 205 224 218 218 205 202 189 218 244 255
186 179 172 170 170 171 170 169 172 175 176 181 191 186 176 173 177 176 174 176 181 183 176 165 164 163 166 169 164 172 192 186 192 212 213 229 234 214 200 185 175 249 267
179 178 172 174 173 174 178 177 179 178 181 184 187 186 182 181 179 177 174 176 175 173 166 167 170 175 171 169 165 181 194 187 205 209 206 216 228 207 208 187 173 184 236
176 179 173 169 173 172 171 174 178 179 180 178 184 188 183 184 179 175 177 175 168 165 165 169 172 181 179 178 176 179 187 187 203 206 204 216 218 207 206 202 210 206 212
177 171 163 160 159 158 159 165 173 173 172 173 175 178 179 180 177 173 176 171 160 162 168 172 176 180 184 183 182 191 189 197 202 203 210 222 214 216 221 216 217 224 218
148 156 153 155 157 156 158 165 172 172 172 171 170 171 171 172 173 173 174 163 160 168 172 174 178 180 186 185 185 197 202 205 207 209 209 223 216 218 223 220 221 224 222
122 134 148 158 162 164 168 170 171 167 165 167 172 170 171 169 170 170 169 164 163 166 172 174 181 184 189 191 196 199 205 213 214 209 210 220 212 227 228 226 226 229 235
111 161 175 169 171 170 174 175 175 167 167 170 175 177 177 173 170 169 166 165 163 166 176 181 184 187 190 191 197 198 205 216 220 214 217 221 214 219 220 224 227 230 233
341 267 220 189 179 180 181 178 175 169 170 173 179 181 175 170 166 169 168 167 168 172 175 178 183 189 191 195 195 198 207 214 222 222 223 227 221 220 223 227 223 223 233
315 299 273 213 194 188 182 173 173 172 170 177 184 176 171 170 169 171 173 170 169 171 173 181 185 195 205 195 196 204 212 215 216 224 229 231 224 227 235 240 237 228 229
323 296 277 235 199 185 180 176 174 170 169 177 177 173 173 172 170 169 168 172 171 171 181 186 188 202 206 197 202 212 214 221 224 228 227 234 234 228 228 245 251 248 248
327 304 293 278 177 155 167 167 166 169 172 176 173 167 167 171 169 169 174 177 175 179 189 197 201 205 214 202 206 215 217 226 229 229 223 221 227 228 228 233 245 248 250
331 320 305 279 153 157 165 160 166 170 173 178 175 172 171 170 170 176 182 180 178 188 192 191 199 205 211 206 206 204 207 224 233 231 227 224 230 238 234 226 243 258 262
355 355 6 39 80 144 133 142 162 170 185 188 180 175 174 177 181 183 182 180 178 187 189 197 199 202 207 213 210 204 203 220 232 235 233 236 242 243 242 230 233 248 255
1 13 23 24 24 75 102 121 141 181 191 177 171 169 171 173 177 177 176 175 178 179 188 201 212 209 207 214 216 213 208 213 225 233 240 243 246 253 257 252 240 254 260
13 25 32 23 19 44 92 107 144 192 146 150 156 160 165 169 166 162 173 174 175 179 193 200 223 225 215 214 218 222 230 233 222 232 235 238 249 260 267 269 269 273 275
19 23 37 27 16 21 62 99 64 62 112 129 148 157 160 161 164 167 174 178 184 187 196 199 214 227 221 227 229 235 241 247 244 235 242 252 257 266 267 268 270 270 253
18 18 27 23 12 10 25 43 56 72 115 134 147 155 155 157 163 173 181 187 196 200 205 208 215 224 233 231 224 231 237 244 253 250 252 259 259 262 261 264 258 243 235
13 21 25 20 6 6 12 18 41 85 114 129 150 158 160 165 171 183 200 203 213 206 207 210 206 205 224 233 236 234 228 223 230 243 236 243 249 252 256 255 248 241 247
16 16 15 7 358 2 7 13 21 68 116 125 140 159 167 173 176 175 279 269 243 246 241 235 231 232 237 242 250 256 258 256 246 242 231 241 243 247 249 251 258 254 250
Height
1463 1465 1466 1466 1468 1469 1471 1473 1475 1477 1480 1482 1484 1486 1489 1492 1494 1496 1498 1500 1502 1504 1506 1507 1508 1510 1511 1512 1514 1515 1517 1518 1519 1521 1522 1523 1524 1525 1526 1526 1527 1527 1528
1459 1461 1462 1463 1464 1466 1467 1469 1471 1474 1476 1479 1482 1484 1486 1489 1491 1492 1495 1497 1499 1501 1502 1504 1505 1507 1508 1510 1511 1513 1514 1515 1517 1518 1519 1521 1523 1523 1524 1524 1525 1525 1526
1455 1457 1458 1459 1461 1462 1464 1466 1468 1471 1473 1476 1479 1482 1484 1486 1488 1489 1491 1494 1496 1498 1500 1501 1503 1505 1506 1507 1508 1510 1511 1512 1515 1516 1518 1519 1519 1520 1521 1522 1523 1523 1523
1451 1452 1454 1456 1457 1459 1461 1463 1465 1468 1471 1473 1475 1477 1479 1481 1484 1486 1488 1491 1494 1495 1497 1499 1501 1502 1503 1505 1506 1507 1509 1510 1512 1514 1515 1517 1517 1518 1518 1520 1520 1521 1521
1448 1449 1451 1452 1454 1456 1458 1461 1462 1465 1468 1470 1472 1475 1476 1478 1481 1483 1486 1489 1491 1493 1494 1495 1497 1499 1501 1502 1503 1505 1506 1508 1509 1511 1512 1513 1514 1515 1515 1515 1517 1517 1518
1444 1446 1448 1450 1452 1454 1456 1458 1460 1462 1465 1468 1469 1471 1473 1475 1477 1480 1483 1485 1488 1490 1491 1492 1494 1496 1498 1499 1501 1502 1503 1505 1507 1508 1509 1510 1511 1512 1512 1512 1512 1513 1514
1441 1443 1445 1447 1448 1451 1453 1455 1457 1460 1462 1465 1467 1469 1471 1473 1474 1476 1479 1481 1484 1486 1488 1490 1491 1494 1495 1497 1498 1499 1501 1502 1503 1505 1506 1507 1508 1509 1509 1509 1509 1509 1510
1438 1440 1442 1444 1445 1447 1450 1452 1454 1456 1459 1462 1464 1466 1468 1470 1472 1474 1476 1478 1481 1483 1485 1487 1488 1491 1493 1494 1495 1496 1498 1499 1500 1501 1502 1503 1504 1505 1506 1506 1506 1506 1506
1436 1437 1439 1441 1443 1445 1447 1449 1451 1453 1456 1459 1461 1463 1465 1467 1469 1471 1473 1475 1478 1480 1482 1483 1485 1488 1489 1491 1492 1493 1494 1495 1497 1498 1499 1499 1500 1501 1502 1503 1503 1504 1502
1434 1435 1437 1438 1440 1442 1444 1446 1448 1451 1453 1456 1458 1460 1462 1464 1466 1468 1470 1472 1474 1476 1478 1480 1482 1484 1486 1488 1489 1490 1491 1492 1493 1494 1495 1495 1496 1497 1498 1499 1499 1499 1499
1432 1433 1434 1435 1437 1439 1441 1443 1446 1448 1450 1452 1455 1457 1459 1461 1463 1464 1467 1468 1470 1473 1475 1477 1479 1481 1483 1484 1485 1486 1487 1488 1489 1490 1491 1491 1492 1493 1493 1494 1494 1495 1495
1432 1432 1433 1433 1435 1437 1439 1441 1443 1445 1446 1449 1451 1453 1455 1457 1459 1461 1463 1465 1467 1469 1471 1473 1475 1477 1479 1481 1481 1482 1483 1484 1484 1485 1486 1487 1488 1488 1489 1489 1490 1490 1490
1430 1431 1431 1432 1433 1435 1437 1438 1440 1442 1443 1446 1448 1449 1451 1453 1455 1457 1459 1461 1464 1466 1468 1470 1472 1473 1475 1476 1477 1478 1479 1480 1481 1481 1482 1483 1484 1484 1484 1485 1485 1485 1485
1429 1429 1430 1431 1431 1433 1434 1436 1437 1439 1440 1442 1444 1445 1447 1450 1452 1454 1456 1458 1460 1462 1465 1466 1468 1470 1471 1472 1474 1475 1475 1476 1477 1477 1478 1479 1479 1480 1480 1480 1480 1480 1481
1428 1428 1428 1429 1429 1430 1432 1433 1435 1436 1438 1439 1440 1442 1444 1447 1449 1451 1453 1455 1457 1459 1461 1462 1464 1466 1467 1468 1470 1471 1471 1472 1472 1473 1474 1475 1475 1475 1476 1476 1476 1476 1476
1427 1427 1427 1427 1427 1428 1429 1430 1432 1433 1434 1436 1437 1439 1441 1443 1445 1447 1449 1451 1453 1455 1457 1458 1460 1462 1463 1464 1465 1467 1467 1468 1468 1468 1469 1470 1470 1471 1471 1471 1471 1471 1471
1426 1425 1425 1425 1425 1425 1426 1428 1429 1430 1432 1433 1435 1437 1439 1440 1442 1444 1446 1448 1449 1451 1453 1454 1456 1458 1459 1460 1461 1462 1463 1463 1464 1464 1464 1464 1466 1466 1466 1466 1466 1466 1466
1423 1423 1423 1422 1423 1423 1424 1425 1426 1427 1429 1430 1432 1434 1436 1438 1439 1441 1443 1445 1446 1448 1449 1451 1452 1454 1455 1456 1457 1458 1458 1459 1459 1460 1460 1460 1461 1461 1461 1461 1460 1460 1461
1421 1420 1420 1420 1421 1421 1422 1422 1423 1424 1426 1427 1429 1431 1433 1434 1436 1438 1440 1441 1443 1445 1446 1447 1448 1449 1451 1452 1453 1453 1454 1454 1455 1455 1456 1456 1456 1456 1456 1456 1455 1454 1455
1419 1418 1418 1418 1418 1419 1419 1419 1420 1421 1423 1424 1426 1428 1430 1431 1433 1435 1437 1438 1440 1441 1442 1443 1444 1446 1447 1448 1449 1449 1450 1450 1450 1451 1451 1452 1451 1451 1451 1451 1450 1449 1449
1418 1417 1416 1416 1416 1416 1417 1417 1418 1419 1420 1422 1424 1425 1427 1429 1430 1432 1433 1435 1436 1438 1439 1440 1441 1442 1443 1444 1444 1445 1445 1445 1445 1446 1446 1446 1447 1447 1447 1446 1445 1444 1444
1416 1415 1415 1414 1414 1415 1415 1415 1416 1417 1419 1420 1421 1422 1424 1426 1427 1428 1430 1431 1433 1434 1435 1436 1437 1438 1439 1440 1440 1441 1441 1441 1441 1441 1442 1442 1442 1442 1442 1441 1440 1440 1439
1416 1415 1414 1413 1413 1414 1414 1414 1414 1415 1416 1417 1418 1420 1421 1422 1424 1425 1426 1428 1429 1430 1431 1433 1433 1434 1435 1436 1437 1437 1437 1437 1437 1437 1437 1437 1437 1437 1437 1436 1436 1435 1434
1415 1414 1413 1412 1412 1412 1412 1412 1413 1413 1414 1415 1416 1417 1418 1419 1421 1422 1423 1425 1426 1427 1428 1429 1430 1430 1432 1432 1433 1433 1433 1433 1433 1433 1433 1433 1433 1433 1432 1432 1431 1430 1429
1414 1414 1413 1412 1411 1410 1410 1411 1411 1411 1412 1413 1413 1415 1416 1417 1418 1419 1421 1422 1423 1424 1425 1425 1426 1427 1427 1428 1429 1429 1428 1429 1429 1428 1428 1428 1428 1427 1427 1427 1426 1425 1425
1413 1413 1412 1411 1410 1410 1409 1409 1409 1409 1410 1410 1411 1412 1413 1414 1415 1416 1418 1419 1420 1421 1421 1422 1423 1423 1424 1424 1424 1425 1425 1425 1425 1425 1424 1423 1423 1422 1422 1421 1421 1421 1420